DW5683 Weather Reports


time (UTC)temp
C
wind
direction
speed
KPH
gust
KPH
rain 1hr
cm
rain 24hr
cm
rain mn
cm
humidity
%
barometer
mb
20260508054539 18 0 0.0 0.0 0.00 0.00 0.00 85 1015.1
20260508053035 18 0 0.0 0.0 0.00 0.00 0.00 84 1015.0
20260508051536 18 0 0.0 0.0 0.00 0.00 0.00 83 1014.9
20260508050044 19 0 0.0 0.0 0.00 0.00 0.00 81 1015.0
20260508044537 20 0 0.0 0.0 0.00 0.00 0.00 78 1014.8
20260508043037 21 0 0.0 0.0 0.00 0.00 0.00 77 1014.8
20260508041536 21 0 0.0 0.0 0.00 0.00 0.00 76 1014.6
20260508040037 21 0 0.0 0.0 0.00 0.00 0.00 76 1014.3
20260508034538 22 0 0.0 0.0 0.00 0.00 0.00 75 1014.2
20260508033042 23 0 0.0 0.0 0.00 0.00 0.00 72 1014.1
20260508031537 24 0 0.0 0.0 0.00 0.00 0.00 70 1013.9
20260508030037 25 0 0.0 0.0 0.00 0.00 0.00 65 1013.8
20260508024541 26 0 0.0 0.0 0.00 0.00 0.00 62 1013.7
20260508023037 26 0 0.0 0.0 0.00 0.00 0.00 57 1013.6
20260508021537 27 0 0.0 0.0 0.00 0.00 0.00 55 1013.6
20260508020041 27 0 0.0 3.2 0.00 0.00 0.00 53 1013.7
20260508014538 27 0 0.0 4.8 0.00 0.00 0.00 55 1013.7
20260508013037 27 223 0.0 9.7 0.00 0.00 0.00 55 1013.7
20260508011548 27 0 0.0 4.8 0.00 0.00 0.00 55 1013.7
20260508010044 27 0 0.0 4.8 0.00 0.00 0.00 54 1013.8
20260508004553 27 0 3.2 6.4 0.00 0.00 0.00 54 1013.9
20260508003042 28 0 0.0 9.7 0.00 0.00 0.00 54 1014.1
20260508001541 28 0 3.2 11.3 0.00 0.00 0.00 55 1014.1
20260508000038 27 0 0.0 9.7 0.00 0.00 0.00 54 1014.1
20260507234539 28 0 0.0 6.4 0.00 0.00 0.00 52 1014.0
20260507233038 28 225 1.6 8.0 0.00 0.00 0.00 53 1014.2
20260507231540 28 0 0.0 6.4 0.00 0.00 0.00 56 1014.4
20260507230038 28 0 0.0 6.4 0.00 0.00 0.00 53 1014.5
20260507224539 27 225 3.2 8.0 0.00 0.00 0.00 54 1014.6
20260507223034 27 0 0.0 4.8 0.00 0.00 0.00 55 1015.0
20260507221539 27 225 0.0 9.7 0.00 0.00 0.00 56 1015.3
20260507220039 27 225 1.6 8.0 0.00 0.00 0.00 55 1015.3
20260507214537 27 227 1.6 9.7 0.00 0.00 0.00 57 1015.5
20260507213037 27 225 3.2 9.7 0.00 0.00 0.00 57 1015.8
20260507211535 26 0 0.0 6.4 0.00 0.00 0.00 57 1016.0
20260507210039 26 220 1.6 4.8 0.00 0.00 0.00 59 1016.1
20260507204555 26 0 0.0 6.4 0.00 0.00 0.00 58 1016.4
20260507203036 26 219 1.6 8.0 0.00 0.00 0.00 59 1016.7
20260507201540 25 222 1.6 8.0 0.00 0.00 0.00 59 1017.0
20260507200040 25 0 1.6 9.7 0.00 0.00 0.00 61 1017.0
20260507194543 25 217 1.6 6.4 0.00 0.00 0.00 61 1017.2
20260507193034 25 217 0.0 8.0 0.00 0.00 0.00 59 1017.3
20260507191538 25 0 0.0 8.0 0.00 0.00 0.00 61 1017.5
20260507190043 25 215 0.0 8.0 0.00 0.00 0.00 61 1017.6
20260507184539 25 0 1.6 9.7 0.00 0.00 0.00 61 1017.8
20260507183041 25 212 0.0 8.0 0.00 0.00 0.00 62 1017.8
20260507181535 25 0 0.0 4.8 0.00 0.00 0.00 62 1017.8
20260507180034 24 200 0.0 6.4 0.00 0.00 0.00 64 1017.8
20260507174540 23 196 0.0 8.0 0.00 0.00 0.00 63 1017.8
20260507173037 23 192 0.0 4.8 0.00 0.00 0.00 68 1017.9
20260507171536 22 192 0.0 3.2 0.00 0.00 0.00 67 1017.8
20260507170036 22 192 0.0 3.2 0.00 0.00 0.00 67 1017.9
20260507164537 22 0 0.0 4.8 0.00 0.00 0.00 68 1018.0
20260507163038 21 0 0.0 3.2 0.00 0.00 0.00 70 1018.0
20260507161539 20 0 0.0 3.2 0.00 0.00 0.00 74 1018.0
20260507160039 20 0 0.0 3.2 0.00 0.00 0.00 74 1018.1
20260507154541 19 192 0.0 3.2 0.00 0.00 0.00 77 1018.3
20260507153045 18 0 0.0 4.8 0.00 0.00 0.00 81 1018.1
20260507151534 17 0 0.0 3.2 0.00 0.00 0.00 85 1018.2
20260507150033 16 0 0.0 4.8 0.00 0.00 0.00 92 1018.2
20260507144537 15 0 0.0 0.0 0.00 0.00 0.00 93 1018.2
20260507143038 13 0 0.0 0.0 0.00 0.00 0.00 93 1018.0
20260507141536 12 0 0.0 0.0 0.00 0.00 0.00 93 1018.0
20260507140048 11 0 0.0 0.0 0.00 0.00 0.00 93 1017.8
20260507134535 11 0 0.0 0.0 0.00 0.00 0.00 92 1017.6
20260507133039 11 0 0.0 0.0 0.00 0.00 0.00 92 1017.6
20260507131538 11 0 0.0 0.0 0.00 0.00 0.00 92 1017.5
20260507130048 11 0 0.0 0.0 0.00 0.00 0.00 93 1017.5
20260507124543 11 0 0.0 0.0 0.00 0.00 0.00 92 1017.5
20260507123047 11 0 0.0 0.0 0.00 0.00 0.00 92 1017.5
20260507121541 11 0 0.0 0.0 0.00 0.00 0.00 92 1017.4
20260507120045 11 0 0.0 0.0 0.00 0.00 0.00 92 1017.4
20260507114543 12 0 0.0 0.0 0.00 0.00 0.00 92 1017.4
20260507113039 12 0 0.0 0.0 0.00 0.00 0.00 92 1017.4
20260507111538 12 0 0.0 0.0 0.00 0.00 0.00 92 1017.4
20260507110038 12 0 0.0 0.0 0.00 0.00 0.00 92 1017.4
20260507104534 12 0 0.0 0.0 0.00 0.00 0.00 92 1017.3
20260507103039 12 0 0.0 0.0 0.00 0.00 0.00 92 1017.4
20260507101545 12 0 0.0 0.0 0.00 0.00 0.00 92 1017.4
20260507100038 12 0 0.0 0.0 0.00 0.00 0.00 92 1017.4
20260507094537 12 0 0.0 0.0 0.00 0.00 0.00 92 1017.5
20260507093039 12 0 0.0 0.0 0.00 0.00 0.00 92 1017.6
20260507091542 12 0 0.0 0.0 0.00 0.00 0.00 91 1017.4
20260507090042 12 0 0.0 0.0 0.00 0.00 0.00 92 1017.6
20260507084538 12 0 0.0 0.0 0.00 0.00 0.00 91 1017.5
20260507083046 13 0 0.0 0.0 0.00 0.00 0.00 91 1017.7
20260507081536 13 0 0.0 0.0 0.00 0.00 0.00 91 1017.7
20260507080042 13 0 0.0 0.0 0.00 0.00 0.00 91 1017.7
20260507074544 13 0 0.0 0.0 0.00 0.00 0.00 90 1017.7
20260507073039 13 0 0.0 0.0 0.00 0.00 0.00 90 1017.6
20260507071556 14 0 0.0 0.0 0.00 0.00 0.00 90 1017.7
20260507070038 15 0 0.0 0.0 0.00 0.00 0.00 89 1017.6
20260507064537 15 0 0.0 0.0 0.00 0.00 0.00 89 1017.5
20260507063039 15 0 0.0 0.0 0.00 0.00 0.00 88 1017.5
20260507061536 15 0 0.0 0.0 0.00 0.00 0.00 88 1017.5
20260507060043 15 0 0.0 0.0 0.00 0.00 0.00 87 1017.5